CST,Max TemperatureF,Mean TemperatureF,Min TemperatureF,Max Dew PointF,MeanDew PointF,Min DewpointF,Max Humidity, Mean Humidity, Min Humidity, Max Sea Level PressureIn, Mean Sea Level PressureIn, Min Sea Level PressureIn, Max VisibilityMiles, Mean VisibilityMiles, Min VisibilityMiles, Max Wind SpeedMPH, Mean Wind SpeedMPH, Max Gust SpeedMPH,PrecipitationIn, CloudCover, Events, WindDirDegrees
2014-2-1,44,38,32,36,31,27,93,79,53,30.09,29.92,29.77,10,8,4,12,5,21,0.00,6,,20
2014-2-2,32,29,26,28,25,19,93,83,69,30.28,30.19,30.07,10,8,1,18,10,25,0.61,8,Snow,21
2014-2-3,33,29,26,27,23,19,80,74,69,30.30,30.23,30.19,10,10,10,0,0,,0.01,8,,-1
2014-2-4,35,34,32,36,32,27,100,95,80,30.15,30.01,29.92,10,7,2,10,3,20,0.05,8,Rain,2
2014-2-5,32,24,15,27,14,9,80,70,63,30.57,30.46,30.16,10,10,10,15,9,23,0.00,4,,7
2014-2-6,21,18,14,14,10,5,79,70,63,30.59,30.51,30.41,10,10,7,14,9,20,0.00,7,,45
2014-2-7,30,24,19,28,20,12,100,80,68,30.41,30.30,30.20,10,8,1,7,2,,0.06,8,Snow,134
2014-2-8,37,34,30,34,31,28,100,94,87,30.19,30.10,30.02,7,4,0,10,5,,0.00,7,Fog,148
2014-2-9,35,34,32,36,33,32,100,99,93,30.19,30.11,30.05,7,3,0,12,7,17,0.00,8,Fog,55
2014-2-10,32,29,26,32,27,23,100,95,80,30.34,30.27,30.19,10,4,2,16,9,21,0.00,8,,33
2014-2-11,32,28,23,27,22,18,86,79,69,30.38,30.30,30.24,10,10,10,14,8,18,0.00,7,,30
2014-2-12,50,40,30,32,28,23,93,69,43,30.23,30.12,30.03,10,10,7,7,1,,0.00,2,,306
2014-2-13,66,44,23,34,30,23,100,68,26,30.05,29.94,29.82,10,8,3,9,1,,0.00,0,,218
2014-2-14,64,50,35,37,30,23,93,55,22,30.11,29.90,29.69,10,10,5,17,3,29,0.00,0,,11
2014-2-15,64,47,30,32,29,27,93,55,24,30.13,30.06,29.96,10,10,10,15,3,21,0.00,0,,195
2014-2-16,68,54,41,55,43,32,88,69,56,30.06,29.97,29.83,10,10,7,12,4,18,0.00,,,153
2014-2-17,68,52,35,55,33,19,100,48,17,30.17,30.04,29.81,10,9,2,16,6,30,0.00,,,3
2014-2-18,77,54,30,50,36,27,94,59,23,30.12,29.95,29.80,10,10,7,16,2,23,0.00,0,,210
2014-2-19,64,58,51,61,53,34,100,83,50,29.91,29.79,29.58,10,7,1,17,6,25,0.00,,,147
2014-2-20,66,54,39,59,38,16,83,53,23,30.11,29.81,29.53,10,10,4,18,11,26,0.00,,,268
2014-2-21,64,46,28,28,21,9,80,41,14,30.15,30.05,29.97,10,10,10,14,3,22,0.00,0,,196
2014-2-22,71,56,41,43,35,27,71,48,25,29.99,29.89,29.80,10,10,10,14,4,20,0.00,,,208
2014-2-23,59,50,42,52,38,27,100,65,34,30.18,30.00,29.82,10,9,0,13,4,18,0.00,,Fog,34
2014-2-24,44,38,33,37,31,25,76,66,56,30.22,30.13,30.06,10,10,10,13,6,16,0.00,,,73
2014-2-25,50,44,37,37,28,19,87,53,37,30.25,30.14,30.10,10,10,7,15,7,25,0.00,,,45
2014-2-26,37,30,23,21,14,10,80,50,33,30.38,30.26,30.15,10,10,10,20,10,29,0.00,,,22
2014-2-27,53,36,19,28,19,14,86,52,22,30.16,30.02,29.84,10,10,10,12,2,16,0.00,,,189
2014-2-28,71,56,41,46,36,28,100,57,27,29.88,29.74,29.67,10,10,4,17,9,28,0.00,,,153